DW9425 Weather Reports


Display with metric or nautical units.
time (UTC)temp
F
wind
direction
speed
MPH
gust
MPH
rain 1hr
in
rain 24hr
in
rain mn
in
humidity
%
barometer
mb
20260831200042 89 207 9.0 16.0 0.00 0.00 0.00 24 1020.8
20260831194543 89 176 9.0 16.0 0.00 0.00 0.00 24 1021.1
20260831193036 87 232 9.0 15.0 0.00 0.00 0.00 26 1021.3
20260831191535 85 231 5.0 18.0 0.00 0.00 0.00 27 1021.5
20260831190048 85 219 6.0 11.0 0.00 0.00 0.00 27 1021.7
20260831184532 85 223 4.0 9.0 0.00 0.00 0.00 27 1021.8
20260831183045 85 266 5.0 9.0 0.00 0.00 0.00 27 1021.9
20260831181533 86 285 4.0 9.0 0.00 0.00 0.00 26 1021.9
20260831180030 86 111 2.0 11.0 0.00 0.00 0.00 26 1022.2
20260831174527 85 207 3.0 10.0 0.00 0.00 0.00 27 1022.2
20260831173022 83 210 1.0 12.0 0.00 0.00 0.00 29 1022.3
20260831171519 81 346 2.0 13.0 0.00 0.00 0.00 30 1022.4
20260831170017 79 323 11.0 16.0 0.00 0.00 0.00 31 1022.4
20260831164510 78 19 4.0 14.0 0.00 0.00 0.00 33 1022.6
20260831163019 77 355 9.0 18.0 0.00 0.00 0.00 33 1022.5
20260831161511 76 11 7.0 20.0 0.00 0.00 0.00 35 1022.4
20260831160003 75 68 5.0 15.0 0.00 0.00 0.00 36 1022.5
20260831154612 73 22 5.0 14.0 0.00 0.00 0.00 39 1022.6
20260831153055 71 360 6.0 17.0 0.00 0.00 0.00 43 1022.6
20260831151551 70 5 5.0 15.0 0.00 0.00 0.00 45 1022.8
20260831150048 68 344 9.0 20.0 0.00 0.00 0.00 50 1023.0
20260831144548 66 21 6.0 19.0 0.00 0.00 0.00 53 1023.1
20260831143042 66 13 8.0 17.0 0.00 0.00 0.00 54 1023.1
20260831141541 66 5 11.0 20.0 0.00 0.00 0.00 54 1023.1
20260831140041 66 360 8.0 19.0 0.00 0.00 0.00 53 1023.1
20260831134538 66 344 9.0 17.0 0.00 0.00 0.00 52 1023.1
20260831133037 66 24 12.0 23.0 0.00 0.00 0.00 52 1023.2
20260831131539 65 332 8.0 17.0 0.00 0.00 0.00 53 1023.0
20260831130035 65 360 7.0 16.0 0.00 0.00 0.00 52 1022.8
20260831124523 65 355 8.0 16.0 0.00 0.00 0.00 51 1022.8
20260831123120 65 32 9.0 17.0 0.00 0.00 0.00 50 1022.5
20260831121518 65 5 8.0 14.0 0.00 0.00 0.00 51 1022.2
20260831120014 65 5 7.0 17.0 0.00 0.00 0.00 52 1022.3
20260831114513 66 341 7.0 16.0 0.00 0.00 0.00 51 1022.6
20260831113010 66 305 6.0 12.0 0.00 0.00 0.00 49 1022.6
20260831111514 66 347 7.0 14.0 0.00 0.00 0.00 49 1022.1
20260831110007 66 340 3.0 12.0 0.00 0.00 0.00 49 1022.1
20260831104506 66 348 9.0 13.0 0.00 0.00 0.00 49 1022.0
20260831103004 66 360 4.0 15.0 0.00 0.00 0.00 49 1022.0
20260831101502 66 360 6.0 17.0 0.00 0.00 0.00 50 1021.8
20260831100059 66 348 9.0 18.0 0.00 0.00 0.00 49 1021.7
20260831094600 67 5 7.0 14.0 0.00 0.00 0.00 48 1021.5
20260831093055 67 347 7.0 13.0 0.00 0.00 0.00 48 1021.4
20260831091553 67 13 7.0 13.0 0.00 0.00 0.00 48 1021.5
20260831090059 67 19 8.0 15.0 0.00 0.00 0.00 47 1021.4
20260831084548 68 5 8.0 17.0 0.00 0.00 0.00 47 1021.3
20260831083049 68 5 9.0 16.0 0.00 0.00 0.00 47 1021.5
20260831081545 68 360 5.0 13.0 0.00 0.00 0.00 47 1021.5
20260831080042 68 10 6.0 16.0 0.00 0.00 0.00 47 1021.6
20260831074540 68 360 8.0 17.0 0.00 0.00 0.00 47 1021.5
20260831073036 69 355 4.0 10.0 0.00 0.00 0.00 46 1021.6
20260831070033 69 10 6.0 15.0 0.00 0.00 0.00 44 1021.6
20260831064531 69 360 2.0 15.0 0.00 0.00 0.00 43 1021.7
20260831063028 69 27 0.0 3.0 0.00 0.00 0.00 44 1021.4
20260831060020 70 27 0.0 0.0 0.00 0.00 0.00 42 1021.0
20260831054520 71 27 0.0 4.0 0.00 0.00 0.00 42 1021.1
20260831053028 71 342 1.0 3.0 0.00 0.00 0.00 42 1021.0
20260831051620 71 324 0.0 3.0 0.00 0.00 0.00 42 1020.9
20260831050026 71 324 0.0 1.0 0.00 0.00 0.00 42 1021.0
20260831044519 72 324 0.0 2.0 0.00 0.00 0.00 40 1021.0
20260831043018 72 324 1.0 4.0 0.00 0.00 0.00 40 1021.0
20260831041618 73 268 2.0 4.0 0.00 0.00 0.00 39 1021.1
20260831040017 74 267 0.0 2.0 0.00 0.00 0.00 38 1021.1
20260831034517 75 267 1.0 4.0 0.00 0.00 0.00 37 1021.1
20260831033016 75 278 4.0 10.0 0.00 0.00 0.00 36 1021.0
20260831031518 76 238 7.0 10.0 0.00 0.00 0.00 35 1020.9
20260831030015 77 342 0.0 3.0 0.00 0.00 0.00 34 1020.4
20260831024515 77 342 0.0 3.0 0.00 0.00 0.00 33 1020.1
20260831023014 78 342 1.0 4.0 0.00 0.00 0.00 33 1020.1
20260831021524 78 338 2.0 5.0 0.00 0.00 0.00 32 1019.9
20260831020016 79 336 0.0 1.0 0.00 0.00 0.00 32 1019.8
20260831014523 80 336 0.0 3.0 0.00 0.00 0.00 31 1019.7
20260831013012 81 336 2.0 4.0 0.00 0.00 0.00 30 1019.6
20260831011514 82 336 1.0 5.0 0.00 0.00 0.00 29 1019.6
20260831010011 82 340 0.0 5.0 0.00 0.00 0.00 28 1019.6
20260831004510 83 333 3.0 8.0 0.00 0.00 0.00 28 1019.7
20260831003009 83 340 3.0 5.0 0.00 0.00 0.00 28 1019.8
20260831001508 84 309 0.0 3.0 0.00 0.00 0.00 27 1019.8
20260831000009 84 312 2.0 8.0 0.00 0.00 0.00 27 1019.9
20260830234509 84 300 4.0 8.0 0.00 0.00 0.00 28 1019.8
20260830233007 84 302 4.0 8.0 0.00 0.00 0.00 27 1019.8
20260830231506 85 335 2.0 9.0 0.00 0.00 0.00 26 1019.7
20260830230005 85 239 3.0 9.0 0.00 0.00 0.00 27 1019.8
20260830224504 85 355 2.0 12.0 0.00 0.00 0.00 27 1019.9
20260830223003 87 355 5.0 15.0 0.00 0.00 0.00 27 1020.0
20260830221502 88 268 7.0 11.0 0.00 0.00 0.00 27 1020.1
20260830220001 89 254 7.0 16.0 0.00 0.00 0.00 22 1020.3
20260830214618 90 250 8.0 14.0 0.00 0.00 0.00 22 1020.2
20260830213057 89 210 7.0 14.0 0.00 0.00 0.00 24 1020.3
20260830211555 87 282 0.0 11.0 0.00 0.00 0.00 25 1020.5
20260830210105 88 235 7.0 14.0 0.00 0.00 0.00 24 1020.8
20260830204559 89 242 13.0 19.0 0.00 0.00 0.00 24 1020.9
20260830203050 89 297 6.0 12.0 0.00 0.00 0.00 24 1021.0
20260830201553 89 272 3.0 10.0 0.00 0.00 0.00 23 1021.3